If you wish to contribute or participate in the discussions about articles you are invited to join SKYbrary as a registered user

 Actions

Athens/Eleftherios Venizelos

From SKYbrary Wiki

LGAV
Airport
ICAO: LGAV – IATA: ATH
Summary
Name Athens/Eleftherios Venizelos
Region Europe
Territory Greece GR.gif
Location Spata
Serving Athens
Elevation 93.878 m
308 ft
308 ft93.878 m
Coordinates 37° 56' 13.4266", 23° 56' 42.9877"
Runways
Designator Length Width Surface ROPS
03L/21R 3800 m12,467.192 ft 45 m147.638 ft ASP yes/yes
03R/21L 4000 m13,123.36 ft 45 m147.638 ft ASP yes/yes


METAR
Observation LGAV 260620Z 01018KT 9999 SCT030 17/06 Q1023 NOSIG
Station Athens Eleftherios Venizelos International Airport
Date/Time 26 September 2018 06:20:00
Wind direction 10°
Wind speed 18 kts
Lowest cloud amount scattered clouds
Temperature 17°C
Dew point 6°C
Humidity 48%
QNH 1023 hPa
Weather condition n/a

Athens/Eleftherios Venizelos Airport

ICAO: LGAV IATA: ATH

Description

International airport serving the Greek capital Athens. It is located 20 km10.799 nm
20,000 m
65,616.798 ft
east of Athens, in Spata.

Climatology

Mediterranean climate (Köppen climate classification Csa) - Hot, dry summer and a mild wet winter.

Maps

Terrain

Loading map...

Airport Layout

Loading map...



Accidents & Serious Incidents at or in vicinity of LGAV

None on SKYbrary